Location: Makanda
(37.6176°N, 89.2090°W)
Time: 21:28:56
(UTC+00:00)

Cosmos 1484 Rocket - Pass Details

Date: 23 September 2019
Orbit: 505 x 561 km, 97.4° (Epoch: 14 October)

Event Time Altitude Azimuth Distance (km) Brightness Sun altitude
Rises 11:13:33 0° 8° (N) 2,625 6.5 -7.1°
Reaches altitude 10° 11:15:39 10° 5° (N) 1,730 5.5 -6.7°
Maximum altitude 11:19:20 64° 284° (WNW) 563 2.6 -6.0°
Drops below altitude 10° 11:22:59 10° 202° (SSW) 1,711 5.1 -5.3°
Sets 11:25:04 0° 200° (SSW) 2,592 6.0 -4.8°
